{"data":{"norad_id":46576,"intl_designator":"2020-070AW","name":"STARLINK-1677","alt_names":[],"object_type":"PAYLOAD","status":"ACTIVE","operator":null,"country":"US","launch_date":"2020-10-06","launch_site_code":"AFETR","launch_vehicle":null,"mission":null,"orbit_class":"UNKNOWN","rcs_meters":null,"size_class":null,"mass_kg":null,"dimensions":null,"purposes":["comms"],"wikipedia_slug":null,"has_3d_model":false,"image_url":null,"decayed_at":null,"tle_current":{"epoch":"2026-06-21T21:08:06.153792Z","epoch_age_seconds":7851512,"freshness":"OLD","line1":"1 46576U 20070AW  26172.88062678  .05107319  12191-4  85091-3 0  9990","line2":"2 46576  53.0128 319.2005 0013799 300.4582  59.5098 16.32214002316748","mean_motion":16.32214002,"eccentricity":0.0013799,"inclination_deg":53.0128,"raan_deg":319.2005,"arg_perigee_deg":300.4582,"mean_anomaly_deg":59.5098,"bstar":0.00085091,"rev_number":31674,"period_min":88.223725457295,"perigee_km":177.53794904793,"apogee_km":195.65530090615,"semimajor_km":6564.733624977,"source":"CELESTRAK","updated_at":"2026-06-22T09:00:34.456555Z"}}}